Weather History for Selinsgrove, PA

Change the Weather History Date:

Tuesday, March 5, 2013

  Actual Average (KIPT) Record (KIPT)
Temperature  
Mean Temperature 34 °F 34 °F  
Max Temperature 41 °F 44 °F 73 °F (1976)
Min Temperature 28 °F 25 °F 2 °F (1978)
Degree Days  
Heating Degree Days 30 31  
Month to date heating degree days 157  
Since 1 July heating degree days 4624  
Cooling Degree Days 0 0  
Month to date cooling degree days 0  
Year to date cooling degree days 0  
Moisture  
Dew Point 23 °F    
Average Humidity 66    
Maximum Humidity 82    
Minimum Humidity 51    
Precipitation  
Precipitation 0.00 in 0.09 in 1.52 in (1920)
Month to date precipitation 0.42  
Year to date precipitation 5.46  
Snow  
Snow 0.00 in - - ()
Month to date snowfall  
Since 1 July snowfall  
Snow Depth -    
Sea Level Pressure  
Sea Level Pressure 30.02 in    
Wind  
Wind Speed 4 mph (North)    
Max Wind Speed 9 mph    
Max Gust Speed -    
Visibility 10 miles    
Events      
T = Trace of Precipitation, MM = Missing Value Source: NWS Daily Summary

Daily Weather History Graph

Daily Weather History Graph

Search for Another Location

Airport:

Trip Planner

Search our weather history database for the weather conditions in past years. The results will help you decide how hot, cold, wet, or windy it might be!

Date:

Astronomy

Mar. 05, 2013 Rise Set
Actual Time 6:34 AM EST 6:03 PM EST
Civil Twilight 6:07 AM EST 6:30 PM EST
Nautical Twilight 5:35 AM EST 7:02 PM EST
Astronomical Twilight 5:03 AM EST 7:34 PM EST
Moon 1:46 AM EST (3/5) 11:38 AM EST (3/5)
Length of Visible Light 12h 23m
Length of Day
11h 28m
Last Quarter, 41% of the Moon is Illuminated
Mar 5
Last Quarter
Mar 11
New
Mar 19
First Quarter
Mar 27
Full
Apr 3
Last Quarter

Hourly Weather History & Observations

Time (EST) Temp. Windchill Dew Point Humidity Pressure Visibility Wind Dir Wind Speed Gust Speed Precip Events Conditions
12:53 AM 30.0 °F 23.2 °F 19.9 °F 66% 30.05 in 10.0 mi NNW 6.9 mph - N/A   Overcast
2:53 AM 30.0 °F - 19.0 °F 64% 30.06 in 10.0 mi Calm Calm - N/A   Overcast
3:53 AM 30.0 °F 25.2 °F 19.0 °F 64% 30.07 in 10.0 mi WNW 4.6 mph - N/A   Overcast
4:53 AM 28.9 °F 23.9 °F 19.9 °F 69% 30.08 in 10.0 mi NW 4.6 mph - N/A   Overcast
5:53 AM 28.9 °F 25.2 °F 19.9 °F 69% 30.09 in 10.0 mi Variable 3.5 mph - N/A   Overcast
8:53 AM 30.9 °F 23.5 °F 21.0 °F 67% 30.10 in 10.0 mi North 8.1 mph - N/A   Overcast
9:53 AM 32.0 °F 24.8 °F 21.9 °F 66% 30.09 in 10.0 mi North 8.1 mph - N/A   Overcast
10:53 AM 32.0 °F 24.2 °F 21.9 °F 66% 30.07 in 10.0 mi NNW 9.2 mph - N/A   Overcast
11:53 AM 33.1 °F 28.7 °F 21.9 °F 64% 30.07 in 10.0 mi NNE 4.6 mph - N/A   Overcast
12:53 PM 35.1 °F 30.1 °F 21.9 °F 59% 30.06 in 10.0 mi ENE 5.8 mph - N/A   Overcast
1:53 PM 37.0 °F 34.5 °F 24.1 °F 59% 30.03 in 10.0 mi North 3.5 mph - N/A   Mostly Cloudy
2:53 PM 39.0 °F 36.8 °F 23.0 °F 53% 30.00 in 10.0 mi East 3.5 mph - N/A   Clear
3:53 PM 41.0 °F 39.0 °F 24.1 °F 51% 29.97 in 10.0 mi Variable 3.5 mph - N/A   Clear
4:53 PM 41.0 °F 35.8 °F 24.1 °F 51% 29.96 in 10.0 mi ENE 8.1 mph - N/A   Clear
5:53 PM 39.0 °F - 24.1 °F 55% 29.98 in 10.0 mi Calm Calm - N/A   Clear
6:53 PM 32.0 °F - 25.0 °F 75% 29.98 in 10.0 mi Calm Calm - N/A   Clear
7:53 PM 32.0 °F - 24.1 °F 73% 29.95 in 10.0 mi Calm Calm - N/A   Clear
8:53 PM 30.9 °F - 24.1 °F 76% 29.96 in 10.0 mi Calm Calm - N/A   Clear
9:53 PM 30.0 °F - 25.0 °F 82% 29.93 in 10.0 mi Calm Calm - N/A   Clear
10:53 PM 32.0 °F - 24.1 °F 73% 29.91 in 10.0 mi Calm Calm - N/A   Partly Cloudy
11:53 PM 32.0 °F 27.5 °F 25.0 °F 75% 29.91 in 10.0 mi NNE 4.6 mph - N/A   Clear